Regional Weather Roundup
Issued by NWS

Home | Current Version | Previous Version | Graphics & Text | Print | Product List | Glossary On
Versions: 1 2 3 4 5 6 7 8 9 10 11 12 13 14 15 16 17 18 19 20 21 22 23 24 25 26 27 28 29 30 31 32 33 34 35 36 37 38 39 40 41 42 43 44 45 46 47 48 49 50
720
ASUS44 KLIX 230601
RWRLA
LOUISIANA WEATHER ROUNDUP
NATIONAL WEATHER SERVICE NEW ORLEANS LA
100 AM CDT TUE SEP 23 2014

NOTE: "FAIR" INDICATES FEW OR NO CLOUDS BELOW 12,000 FEET WITH NO
      SIGNIFICANT WEATHER AND/OR OBSTRUCTIONS TO VISIBILITY.
      SKY/WX - SKY CONDITION AND SIGNIFICANT WEATHER.
      TMP - AIR TEMPERATURE.    DP   - DEWPOINT TEMPERATURE.
      RH  - RELATIVE HUMIDITY.  PRES - PRESSURE.
      HX  - HEAT INDEX.         WCI  - WIND CHILL INDEX.

*  THESE STATIONS ARE NOT NWS OR FAA STATIONS AND ARE NOT UNDER
   NWS QUALITY CONTROL.

LAZ040-048-061>063-065-066-069-230700-
SOUTHEAST LOUISIANA

CITY           SKY/WX    TMP DP  RH WIND       PRES   REMARKS
N.O. AUDUBON     N/A     82  58  44 MISG        N/A
6HR MIN TEMP:  75; 6HR MAX TEMP:  85;

N.O. INTL ARPT CLEAR     76  56  49 NE15G29   30.04S
6HR MIN TEMP:  76; 6HR MAX TEMP:  84;

N.O. LAKEFRONT CLEAR     76  61  59 NE28      30.05S
6HR MIN TEMP:  76; 6HR MAX TEMP:  84;

N.O. DOWNTOWN* FAIR      75  54  46 N5G16     30.05S
6HR MIN TEMP:  75; 6HR MAX TEMP:  84;

SLIDELL        CLEAR     65  55  70 N8        30.06S
6HR MIN TEMP:  64; 6HR MAX TEMP:  78;

BATON ROUGE    CLEAR     64  57  78 N6        30.07F
6HR MIN TEMP:  64; 6HR MAX TEMP:  79;

BOOTHVILLE     CLEAR     82  64  54 NE10G20   30.01F
6HR MIN TEMP:  82; 6HR MAX TEMP:  83;

BELLE CHASSE   CLEAR     73  55  53 NE8       30.04R
6HR MIN TEMP:  73; 6HR MAX TEMP:  81;

BOGALUSA*      NOT AVBL
GALLIANO*      NOT AVBL
NEW ROADS*     FAIR      63  56  80 N6        30.08F
6HR MIN TEMP:  63; 6HR MAX TEMP:  77;

GONZALES*      FAIR      68  59  72 N3        30.06S
6HR MIN TEMP:  68; 6HR MAX TEMP:  82;

HAMMOND*       NOT AVBL
HOUMA*         CLEAR     69  51  52 N6        30.04S
6HR MIN TEMP:  69; 6HR MAX TEMP:  79;

PORT FOURCHON* CLEAR     79  63  57 NE15G21   30.05S

$$

LAZ041-044-053-054-230700-
SOUTHWEST LOUISIANA

CITY           SKY/WX    TMP DP  RH WIND       PRES   REMARKS
LAKE CHARLES   CLEAR     67  57  70 NE8       30.08S
6HR MIN TEMP:  67; 6HR MAX TEMP:  81;

LAFAYETTE      CLEAR     65  58  78 N5        30.07S
6HR MIN TEMP:  65; 6HR MAX TEMP:  80;

PATTERSON      CLEAR     68  61  77 NE7       30.07
6HR MIN TEMP:  68; 6HR MAX TEMP:  82;

SALT POINT       N/A     72  63  73 VRB5      30.04S
6HR MIN TEMP:  72; 6HR MAX TEMP:  85; 6HR PCP:  0.01;

NEW IBERIA     CLEAR     69  59  70 NE10      30.07S
6HR MIN TEMP:  69; 6HR MAX TEMP:  81;

CHENAULT AIRPK CLEAR     66  57  73 N6        30.09S
6HR MIN TEMP:  66; 6HR MAX TEMP:  80;


$$

LAZ027-028-230700-
CENTRAL LOUISIANA

CITY           SKY/WX    TMP DP  RH WIND       PRES   REMARKS
FORT POLK      NOT AVBL
ALEXANDRIA INT CLEAR     65  54  67 N7        30.10S
6HR MIN TEMP:  65; 6HR MAX TEMP:  77;

ALEXANDRIA     CLEAR     64  55  72 NE3       30.12S
6HR MIN TEMP:  63; 6HR MAX TEMP:  77;


$$

LAZ001-002-230700-
NORTHWEST LOUISIANA

CITY           SKY/WX    TMP DP  RH WIND       PRES   REMARKS
SHREVEPORT     CLEAR     67  53  61 NE9       30.15F
6HR MIN TEMP:  66; 6HR MAX TEMP:  79;

BARKSDALE AFB  CLEAR     61  55  81 NE2       30.16S
6HR MIN TEMP:  61; 6HR MAX TEMP:  77;

DTN SHREVEPORT CLEAR     65  54  67 NE6       30.16S
6HR MIN TEMP:  64; 6HR MAX TEMP:  78;


$$

LAZ014-016-230700-
NORTHEAST LOUISIANA

CITY           SKY/WX    TMP DP  RH WIND       PRES   REMARKS
MONROE         CLEAR     63  53  70 NE6       30.15S
6HR MIN TEMP:  63; 6HR MAX TEMP:  75;

TALLULAH       CLEAR     64  55  72 NE9       30.14R
6HR MIN TEMP:  64; 6HR MAX TEMP:  73;


$$




USA.gov is the U.S. government's official web portal to all federal, state and local government web resources and services.